SIA305 EGLL-WSSS

Flight info

Callsign SIA305
Flight time N/A
Altitude 29000
Route DET L6 DVR L9 KONAN UL607 REMBA DCT MATUG DCT GUBAX DCT KOMIB L984 SULUS Z650 VEMUT DCT DITIS DCT ERGOM DCT DINRO/N0491F310 DCT UDROS UM859 KARDE UL851 TBN UR317 REBLO M11 LUSAL N199 BAKUV N701 LARGI B701 TUGTA A909 BABUM A477 VARAN/N0494F330 A477 AKRAM R226 MANAT/K0919F330 Z777 INDUD M875 AMDAR/N0500F330 M875 TAPIS L509 LAJAK M881 LAKRA/N0509F320 G325 ZB/N0508F330 G202 RK P628 IBANI L510 MABDU/N0500F350 L510 GIVAL P628 VPL Y503 RINBA Y507 MAKNA Y511 TOPOR A464 ARAMA DCT TEBUN TEBUN1A
Aircraft B77W/H-SDE1E2E3FGHIJ2J3J4J5M1RWXY/LB1D1

Departure

Time 2026-04-30 12:16
Airport London Heathrow Airport (EGLL)

Arrival

Time N/A
Airport Singapore Changi Airport (WSSS)
Time Latitude Longitude Altitude Speed Heading
2026-04-30 11:45 51.47266 -0.44196 99 ft 0 kts 270°
2026-04-30 11:58 51.47266 -0.44190 99 ft 2 kts 270°
2026-04-30 11:59 51.47266 -0.44167 99 ft 2 kts 270°
2026-04-30 11:59 51.47266 -0.44143 99 ft 2 kts 270°
2026-04-30 11:59 51.47266 -0.44119 99 ft 2 kts 270°
2026-04-30 11:59 51.47266 -0.44103 99 ft 2 kts 268°
2026-04-30 12:00 51.47269 -0.44081 99 ft 2 kts 236°
2026-04-30 12:00 51.47279 -0.44065 99 ft 2 kts 211°
2026-04-30 12:00 51.47292 -0.44056 99 ft 2 kts 186°
2026-04-30 12:01 51.47255 -0.44058 99 ft 5 kts 180°
2026-04-30 12:01 51.47232 -0.44058 99 ft 0 kts 180°
2026-04-30 12:01 51.47231 -0.44058 99 ft 0 kts 180°
2026-04-30 12:03 51.47213 -0.44058 99 ft 6 kts 180°
2026-04-30 12:03 51.47149 -0.44057 99 ft 12 kts 180°
2026-04-30 12:04 51.47051 -0.44056 99 ft 15 kts 180°
2026-04-30 12:04 51.46948 -0.44052 99 ft 13 kts 177°
2026-04-30 12:04 51.46867 -0.44047 99 ft 10 kts 179°
2026-04-30 12:04 51.46798 -0.44045 99 ft 10 kts 179°
2026-04-30 12:05 51.46718 -0.44047 99 ft 11 kts 182°
2026-04-30 12:05 51.46668 -0.44123 99 ft 13 kts 266°
2026-04-30 12:05 51.46666 -0.44297 99 ft 18 kts 271°
2026-04-30 12:05 51.46666 -0.44507 99 ft 18 kts 270°
2026-04-30 12:06 51.46664 -0.44752 99 ft 26 kts 270°
2026-04-30 12:06 51.46663 -0.45030 99 ft 23 kts 270°
2026-04-30 12:06 51.46662 -0.45267 99 ft 20 kts 270°
2026-04-30 12:06 51.46661 -0.45479 99 ft 17 kts 270°
2026-04-30 12:07 51.46661 -0.45661 99 ft 16 kts 270°
2026-04-30 12:07 51.46661 -0.45845 99 ft 15 kts 270°
2026-04-30 12:07 51.46661 -0.46009 99 ft 14 kts 270°
2026-04-30 12:07 51.46660 -0.46169 99 ft 13 kts 271°
2026-04-30 12:08 51.46661 -0.46328 99 ft 16 kts 270°
2026-04-30 12:08 51.46659 -0.46516 99 ft 17 kts 270°
2026-04-30 12:08 51.46658 -0.46697 99 ft 17 kts 269°
2026-04-30 12:08 51.46658 -0.46898 99 ft 17 kts 270°
2026-04-30 12:09 51.46658 -0.47078 99 ft 15 kts 270°
2026-04-30 12:09 51.46656 -0.47252 99 ft 15 kts 269°
2026-04-30 12:09 51.46655 -0.47413 99 ft 13 kts 270°
2026-04-30 12:09 51.46655 -0.47549 99 ft 11 kts 270°
2026-04-30 12:10 51.46655 -0.47661 99 ft 9 kts 271°
2026-04-30 12:10 51.46655 -0.47760 99 ft 8 kts 270°
2026-04-30 12:10 51.46655 -0.47848 99 ft 8 kts 271°
2026-04-30 12:10 51.46653 -0.47948 99 ft 8 kts 268°
2026-04-30 12:11 51.46653 -0.48050 99 ft 11 kts 270°
2026-04-30 12:11 51.46652 -0.48186 99 ft 12 kts 270°
2026-04-30 12:11 51.46653 -0.48315 99 ft 10 kts 271°
2026-04-30 12:11 51.46653 -0.48421 99 ft 8 kts 270°
2026-04-30 12:12 51.46652 -0.48509 99 ft 7 kts 267°
2026-04-30 12:12 51.46651 -0.48596 99 ft 8 kts 270°
2026-04-30 12:12 51.46650 -0.48654 99 ft 0 kts 270°
2026-04-30 12:13 51.46650 -0.48665 99 ft 3 kts 265°
2026-04-30 12:13 51.46632 -0.48728 99 ft 9 kts 229°
2026-04-30 12:14 51.46576 -0.48777 99 ft 8 kts 195°
2026-04-30 12:14 51.46515 -0.48770 99 ft 10 kts 159°
2026-04-30 12:14 51.46477 -0.48689 99 ft 3 kts 89°
2026-04-30 12:14 51.46477 -0.48688 99 ft 1 kts 89°
2026-04-30 12:15 51.46480 -0.48467 99 ft 50 kts 89°
2026-04-30 12:15 51.46480 -0.47669 99 ft 107 kts 90°
2026-04-30 12:15 51.46481 -0.46125 99 ft 164 kts 90°
2026-04-30 12:15 51.46495 -0.44113 333 ft 192 kts 90°
2026-04-30 12:16 51.46541 -0.41946 1002 ft 199 kts 91°
2026-04-30 12:16 51.46223 -0.39917 1818 ft 188 kts 115°
2026-04-30 12:16 51.45463 -0.38151 1877 ft 209 kts 130°
2026-04-30 12:16 51.44564 -0.36267 2151 ft 219 kts 118°
2026-04-30 12:17 51.43388 -0.31803 3083 ft 231 kts 109°
2026-04-30 12:17 51.42942 -0.29354 3666 ft 234 kts 106°
2026-04-30 12:17 51.42566 -0.26835 4185 ft 238 kts 104°
2026-04-30 12:18 51.42213 -0.24230 4658 ft 246 kts 104°
2026-04-30 12:18 51.41856 -0.21604 4975 ft 257 kts 104°
2026-04-30 12:18 51.41475 -0.18818 5516 ft 262 kts 105°
2026-04-30 12:18 51.41071 -0.15885 5807 ft 278 kts 105°
2026-04-30 12:19 51.40641 -0.12773 5990 ft 295 kts 105°
2026-04-30 12:19 51.40193 -0.09524 5991 ft 301 kts 104°
2026-04-30 12:19 51.39744 -0.06269 5990 ft 302 kts 104°
2026-04-30 12:19 51.39292 -0.03003 5991 ft 302 kts 104°
2026-04-30 12:20 51.38835 0.00289 5991 ft 302 kts 104°
2026-04-30 12:20 51.38367 0.03637 6025 ft 317 kts 104°
2026-04-30 12:20 51.37884 0.07093 6571 ft 324 kts 104°
2026-04-30 12:20 51.37394 0.10600 7212 ft 329 kts 104°
2026-04-30 12:21 51.36897 0.14142 7820 ft 333 kts 104°
2026-04-30 12:21 51.36387 0.17773 8501 ft 336 kts 104°
2026-04-30 12:21 51.35875 0.21406 9163 ft 339 kts 104°
2026-04-30 12:21 51.35359 0.25060 9737 ft 344 kts 104°
2026-04-30 12:22 51.34832 0.28785 10384 ft 347 kts 104°
2026-04-30 12:22 51.34290 0.32597 10748 ft 359 kts 104°
2026-04-30 12:22 51.33724 0.36562 10783 ft 381 kts 104°
2026-04-30 12:22 51.33123 0.40771 11079 ft 389 kts 104°
2026-04-30 12:23 51.32564 0.44686 11917 ft 373 kts 104°
2026-04-30 12:23 51.32006 0.48583 13154 ft 358 kts 104°
2026-04-30 12:23 51.31460 0.52379 13583 ft 367 kts 104°
2026-04-30 12:23 51.30891 0.56322 13835 ft 380 kts 104°
2026-04-30 12:24 51.30276 0.60567 14359 ft 385 kts 104°
2026-04-30 12:24 51.29567 0.64633 14949 ft 387 kts 107°
2026-04-30 12:24 51.28802 0.68733 15608 ft 388 kts 108°
2026-04-30 12:24 51.28039 0.72829 16151 ft 392 kts 108°
2026-04-30 12:25 51.27418 0.76174 16546 ft 395 kts 108°
2026-04-30 12:25 51.26610 0.80532 17008 ft 402 kts 108°
2026-04-30 12:25 51.25773 0.85052 17486 ft 407 kts 108°
2026-04-30 12:25 51.24999 0.89230 17970 ft 410 kts 108°
2026-04-30 12:26 51.24185 0.93620 18496 ft 413 kts 108°
2026-04-30 12:26 51.23386 0.97920 19065 ft 415 kts 108°
2026-04-30 12:26 51.22574 1.02287 19605 ft 417 kts 108°
2026-04-30 12:26 51.21751 1.06699 20102 ft 420 kts 108°
2026-04-30 12:27 51.20937 1.11060 20577 ft 423 kts 108°
2026-04-30 12:27 51.20105 1.15504 21098 ft 425 kts 108°
2026-04-30 12:27 51.19251 1.20055 21580 ft 427 kts 107°
2026-04-30 12:27 51.18396 1.24600 22046 ft 430 kts 107°
2026-04-30 12:28 51.17545 1.29116 22495 ft 432 kts 107°
2026-04-30 12:28 51.16690 1.33699 22954 ft 435 kts 105°
2026-04-30 12:28 51.16129 1.38461 23376 ft 439 kts 97°
2026-04-30 12:28 51.15874 1.43353 23852 ft 440 kts 95°
2026-04-30 12:29 51.15653 1.48161 24287 ft 442 kts 95°
2026-04-30 12:29 51.15424 1.53053 24684 ft 445 kts 95°
2026-04-30 12:29 51.15190 1.57976 25052 ft 448 kts 95°
2026-04-30 12:29 51.14949 1.62975 25441 ft 451 kts 95°
2026-04-30 12:30 51.14721 1.67616 25823 ft 453 kts 96°
2026-04-30 12:30 51.14474 1.72610 26250 ft 454 kts 96°
2026-04-30 12:30 51.14222 1.77649 26604 ft 457 kts 96°
2026-04-30 12:30 51.13966 1.82712 26976 ft 460 kts 96°
2026-04-30 12:31 51.13709 1.87746 27329 ft 462 kts 96°
2026-04-30 12:31 51.13445 1.92869 27693 ft 465 kts 96°
2026-04-30 12:31 51.13182 1.97934 28079 ft 466 kts 96°
2026-04-30 12:31 51.12910 2.03117 28449 ft 468 kts 96°
2026-04-30 12:32 51.12638 2.08243 28844 ft 469 kts 96°
2026-04-30 12:32 51.12360 2.13463 29222 ft 470 kts 96°
2026-04-30 12:32 51.11801 2.23787 29241 ft 467 kts 96°
2026-04-30 12:33 51.11250 2.33828 29242 ft 468 kts 96°
2026-04-30 12:33 51.10675 2.44125 29249 ft 468 kts 96°
2026-04-30 12:34 51.10089 2.54439 29247 ft 468 kts 96°
2026-04-30 12:34 51.09413 2.64670 29246 ft 467 kts 101°
2026-04-30 12:35 51.07798 2.74434 29262 ft 468 kts 106°
2026-04-30 12:35 51.06788 2.80018 29260 ft 467 kts 106°
2026-04-30 12:36 51.06071 2.83965 29257 ft 467 kts 107°
2026-04-30 12:36 51.04724 2.91359 29258 ft 468 kts 106°
2026-04-30 12:37 51.02830 3.01712 29261 ft 467 kts 106°
2026-04-30 12:37 51.01002 3.11647 29257 ft 469 kts 106°
2026-04-30 12:38 50.99171 3.21542 29265 ft 468 kts 106°
2026-04-30 12:38 50.97334 3.31418 29266 ft 468 kts 106°
2026-04-30 12:39 50.95491 3.41278 29253 ft 469 kts 106°
2026-04-30 12:39 50.93627 3.51193 29258 ft 469 kts 106°
2026-04-30 12:40 50.91764 3.61052 29249 ft 469 kts 106°
2026-04-30 12:40 50.89940 3.70597 29254 ft 470 kts 107°
2026-04-30 12:41 50.88059 3.80340 29258 ft 470 kts 107°
2026-04-30 12:41 50.86187 3.89994 29265 ft 470 kts 107°
2026-04-30 12:42 50.84291 3.99718 29268 ft 469 kts 107°
2026-04-30 12:42 50.82368 4.09539 29274 ft 468 kts 107°
2026-04-30 12:43 50.80425 4.19408 29279 ft 469 kts 107°
2026-04-30 12:43 50.78490 4.29183 29283 ft 470 kts 107°
2026-04-30 12:44 50.76524 4.39069 29285 ft 470 kts 107°
2026-04-30 12:44 50.74578 4.48802 29296 ft 470 kts 106°
2026-04-30 12:45 50.72632 4.58491 29289 ft 469 kts 106°
2026-04-30 12:45 50.70721 4.68232 29292 ft 469 kts 106°
2026-04-30 12:46 50.68898 4.77659 29286 ft 469 kts 106°
2026-04-30 12:46 50.67043 4.87186 29287 ft 469 kts 106°
2026-04-30 12:47 50.64092 4.96199 29275 ft 474 kts 134°
2026-04-30 12:47 50.61347 4.99198 29266 ft 484 kts 153°
2026-04-30 12:47 50.58133 5.00593 29268 ft 492 kts 172°
2026-04-30 12:48 50.54702 5.00271 29261 ft 501 kts 191°
2026-04-30 12:48 50.51471 4.98214 29259 ft 509 kts 210°
2026-04-30 12:48 50.48788 4.94640 29254 ft 515 kts 229°
2026-04-30 12:48 50.46908 4.89826 29261 ft 519 kts 248°
2026-04-30 12:49 50.46071 4.84328 29258 ft 522 kts 266°
2026-04-30 12:49 50.46356 4.78688 29249 ft 521 kts 285°
2026-04-30 12:49 50.47740 4.73462 29251 ft 517 kts 304°
2026-04-30 12:49 50.50029 4.69268 29248 ft 512 kts 323°
2026-04-30 12:50 50.53054 4.66391 29260 ft 504 kts 342°
2026-04-30 12:50 50.56411 4.65201 29249 ft 496 kts
2026-04-30 12:50 50.59777 4.65764 29258 ft 487 kts 20°
2026-04-30 12:50 50.62832 4.68040 29259 ft 478 kts 39°
2026-04-30 12:51 50.65214 4.71519 29276 ft 474 kts 51°
2026-04-30 12:51 50.67111 4.75686 29261 ft 468 kts 62°
2026-04-30 12:51 50.68425 4.80219 29268 ft 451 kts 72°
2026-04-30 12:51 50.69156 4.84938 29262 ft 434 kts 83°
2026-04-30 12:52 50.69323 4.89583 29265 ft 418 kts 92°
2026-04-30 12:52 50.68979 4.94071 29272 ft 412 kts 102°
2026-04-30 12:52 50.66817 5.02384 29278 ft 420 kts 121°
2026-04-30 12:53 50.62791 5.09094 29285 ft 426 kts 142°
2026-04-30 12:53 50.57412 5.13068 29285 ft 434 kts 162°
2026-04-30 12:54 50.54430 5.13801 29287 ft 440 kts 174°
2026-04-30 12:54 50.51369 5.13626 29291 ft 446 kts 185°
2026-04-30 12:54 50.48336 5.12508 29277 ft 451 kts 196°
2026-04-30 12:54 50.45495 5.10476 29276 ft 455 kts 208°
2026-04-30 12:55 50.42898 5.07523 29269 ft 460 kts 220°
2026-04-30 12:55 50.40743 5.03839 29267 ft 463 kts 232°
2026-04-30 12:55 50.37715 4.94935 29259 ft 467 kts 251°
2026-04-30 12:56 50.36994 4.90019 29263 ft 467 kts 263°
2026-04-30 12:56 50.36833 4.84915 29266 ft 469 kts 272°
2026-04-30 12:56 50.37492 4.75284 29268 ft 469 kts 281°
2026-04-30 12:57 50.38878 4.65332 29274 ft 467 kts 285°
2026-04-30 12:57 50.40547 4.55530 29276 ft 467 kts 287°
2026-04-30 12:58 50.42817 4.46193 29268 ft 464 kts 304°
2026-04-30 12:58 50.44756 4.42149 29265 ft 462 kts 316°
2026-04-30 12:58 50.47149 4.38841 29263 ft 458 kts 328°
2026-04-30 12:59 50.49867 4.36388 29265 ft 454 kts 340°
2026-04-30 12:59 50.52625 4.34904 29259 ft 448 kts 350°
2026-04-30 12:59 50.55833 4.34223 29263 ft 444 kts
2026-04-30 12:59 50.58838 4.34527 29262 ft 438 kts 13°
2026-04-30 13:00 50.64365 4.37685 29270 ft 429 kts 34°
2026-04-30 13:00 50.68742 4.43768 29277 ft 423 kts 54°
2026-04-30 13:01 50.70303 4.47615 29276 ft 419 kts 65°
2026-04-30 13:01 50.71392 4.51864 29280 ft 417 kts 75°
2026-04-30 13:01 50.72012 4.60911 29279 ft 416 kts 94°
2026-04-30 13:02 50.71532 4.65370 29278 ft 416 kts 105°
2026-04-30 13:02 50.70702 4.69522 29293 ft 419 kts 107°
2026-04-30 13:02 50.68868 4.78365 29290 ft 432 kts 107°
2026-04-30 13:03 50.67077 4.87302 29287 ft 445 kts 106°
2026-04-30 13:03 50.64826 4.96538 29285 ft 461 kts 118°
2026-04-30 13:04 50.62956 5.00691 29279 ft 470 kts 129°
2026-04-30 13:04 50.60571 5.04260 29277 ft 479 kts 140°
2026-04-30 13:04 50.57769 5.07049 29278 ft 485 kts 151°
2026-04-30 13:04 50.54613 5.08943 29271 ft 489 kts 162°
2026-04-30 13:05 50.51225 5.09811 29269 ft 494 kts 174°
2026-04-30 13:05 50.47810 5.09585 29260 ft 499 kts 186°
2026-04-30 13:05 50.44421 5.08238 29266 ft 504 kts 198°
2026-04-30 13:06 50.38480 5.02384 29260 ft 514 kts 223°
2026-04-30 13:06 50.36197 4.98081 29260 ft 516 kts 235°
2026-04-30 13:06 50.34541 4.93106 29256 ft 519 kts 248°
2026-04-30 13:06 50.33591 4.87664 29261 ft 522 kts 261°
2026-04-30 13:07 50.33402 4.82057 29264 ft 521 kts 274°
2026-04-30 13:07 50.33983 4.76476 29265 ft 520 kts 286°
2026-04-30 13:07 50.35066 4.71070 29274 ft 522 kts 289°
2026-04-30 13:08 50.37318 4.60389 29263 ft 521 kts 289°
2026-04-30 13:08 50.40048 4.49966 29264 ft 518 kts 302°
2026-04-30 13:09 50.44456 4.41247 29257 ft 515 kts 320°
2026-04-30 13:09 50.50198 4.34960 29260 ft 508 kts 336°
2026-04-30 13:10 50.56808 4.31585 29255 ft 501 kts 354°
2026-04-30 13:10 50.63814 4.31461 29264 ft 492 kts 11°
2026-04-30 13:11 50.70352 4.34448 29257 ft 485 kts 27°
2026-04-30 13:11 50.75951 4.40062 29263 ft 479 kts 43°
2026-04-30 13:12 50.80310 4.47827 29269 ft 473 kts 58°
2026-04-30 13:12 50.83111 4.56980 29277 ft 472 kts 73°
2026-04-30 13:13 50.84255 4.67009 29282 ft 470 kts 88°
2026-04-30 13:13 50.84166 4.72195 29288 ft 469 kts 96°
2026-04-30 13:13 50.82687 4.82080 29282 ft 470 kts 110°
2026-04-30 13:14 50.81467 4.86931 29290 ft 470 kts 111°
2026-04-30 13:14 50.77783 5.01239 29285 ft 470 kts 111°
2026-04-30 13:15 50.74070 5.15562 29292 ft 471 kts 111°
2026-04-30 13:16 50.71578 5.25131 29294 ft 472 kts 111°
2026-04-30 13:16 50.69079 5.34681 29290 ft 471 kts 110°
2026-04-30 13:17 50.65317 5.48985 29292 ft 472 kts 110°
2026-04-30 13:18 50.61548 5.63230 29295 ft 472 kts 110°
2026-04-30 13:18 50.58015 5.76508 29297 ft 473 kts 111°
2026-04-30 13:19 50.55510 5.85875 29292 ft 472 kts 111°
2026-04-30 13:19 50.52993 5.95251 29291 ft 472 kts 111°
2026-04-30 13:20 50.50432 6.04748 29283 ft 473 kts 111°
2026-04-30 13:20 50.47886 6.14153 29283 ft 473 kts 111°
2026-04-30 13:21 50.45318 6.23602 29295 ft 474 kts 111°
2026-04-30 13:22 50.41729 6.37896 29292 ft 470 kts 102°
2026-04-30 13:22 50.40402 6.53021 29293 ft 468 kts 95°
2026-04-30 13:23 50.39262 6.68151 29304 ft 469 kts 95°
2026-04-30 13:24 50.37710 6.88003 29309 ft 469 kts 95°
2026-04-30 13:25 50.36084 7.08224 29320 ft 468 kts 95°